Hollywood, MD

3:45 AM EST on February 21, 2017 (GMT -0500)
Leonardtown

Weather History for K2W6 - September, 2013

Change the Weather History Date:

Friday, September 27, 2013

  Actual Average (KNHK) Record (KNHK)
Temperature  
Mean Temperature 60 °F -  
Max Temperature 69 °F 75 °F 95 °F (1998)
Min Temperature 51 °F 57 °F 46 °F (1989)
Degree Days  
Heating Degree Days 5    
Growing Degree Days 10 (Base 50)    
Moisture  
Dew Point 52 °F    
Average Humidity 76    
Maximum Humidity 94    
Minimum Humidity 53    
Precipitation  
Precipitation 0.00 in - - ()
Sea Level Pressure  
Sea Level Pressure 30.17 in    
Wind  
Wind Speed 1 mph (ENE)    
Max Wind Speed 7 mph    
Max Gust Speed -    
Visibility 10 miles    
Events      
Averages and records for this station are not official NWS values.
T = Trace of Precipitation, MM = Missing Value Source: NWS Daily Summary

Daily Weather History Graph

Daily Weather History Graph

Search for Another Location

Airport or City:

Trip Planner

Search our weather history database for the weather conditions in past years. The results will help you decide how hot, cold, wet, or windy it might be!

Date:

Astronomy

Sep. 27, 2013 Rise Set
Actual Time 6:58 AM EDT 6:54 PM EDT
Civil Twilight 6:32 AM EDT 7:21 PM EDT
Nautical Twilight 6:01 AM EDT 7:51 PM EDT
Astronomical Twilight 5:30 AM EDT 8:22 PM EDT
Moon No Moon Rise 2:27 PM EDT (9/27)
Length of Visible Light 12h 49m
Length of Day
11h 56m
Last Quarter, 45% of the Moon is Illuminated
Sep 27
Last Quarter
Oct 4
New
Oct 11
First Quarter
Oct 18
Full
Oct 26
Last Quarter

Hourly Weather History & Observations

Time (EDT) Temp. Dew Point Humidity Pressure Visibility Wind Dir Wind Speed Gust Speed Precip Events Conditions
12:05 AM 53.6 °F 51.8 °F 94% 30.09 in 10.0 mi Calm Calm - N/A   Clear
12:25 AM 53.6 °F 51.8 °F 94% 30.09 in 10.0 mi Calm Calm - N/A   Clear
12:45 AM 53.6 °F 51.8 °F 94% 30.09 in 10.0 mi Calm Calm - N/A   Clear
1:05 AM 53.6 °F 51.8 °F 94% 30.09 in 10.0 mi Calm Calm - N/A   Clear
1:25 AM 53.6 °F 51.8 °F 94% 30.09 in 10.0 mi Calm Calm - N/A   Clear
1:45 AM 53.6 °F 51.8 °F 94% 30.10 in 10.0 mi Calm Calm - N/A   Clear
2:05 AM 53.6 °F 50.0 °F 88% 30.09 in 10.0 mi Calm Calm - N/A   Clear
2:25 AM 51.8 °F 50.0 °F 94% 30.09 in 10.0 mi Calm Calm - N/A   Clear
2:45 AM 51.8 °F 50.0 °F 94% 30.09 in 10.0 mi Calm Calm - N/A   Clear
3:05 AM 51.8 °F 50.0 °F 94% 30.10 in 10.0 mi Calm Calm - N/A   Clear
3:25 AM 51.8 °F 50.0 °F 94% 30.10 in 10.0 mi Calm Calm - N/A   Clear
3:46 AM 51.8 °F 50.0 °F 94% 30.10 in 10.0 mi Calm Calm - N/A   Scattered Clouds
4:06 AM 51.8 °F 50.0 °F 94% 30.10 in 10.0 mi Calm Calm - N/A   Mostly Cloudy
4:26 AM 51.8 °F 50.0 °F 94% 30.10 in 10.0 mi Calm Calm - N/A   Scattered Clouds
4:46 AM 51.8 °F 50.0 °F 94% 30.11 in 10.0 mi Calm Calm - N/A   Scattered Clouds
5:06 AM 53.6 °F 51.8 °F 94% 30.12 in 10.0 mi Calm Calm - N/A   Overcast
5:26 AM 51.8 °F 50.0 °F 94% 30.12 in 10.0 mi Calm Calm - N/A   Scattered Clouds
5:46 AM 51.8 °F 50.0 °F 94% 30.13 in 10.0 mi Calm Calm - N/A   Clear
6:06 AM 53.6 °F 51.8 °F 94% 30.14 in 10.0 mi Calm Calm - N/A   Mostly Cloudy
6:26 AM 55.4 °F 53.6 °F 94% 30.14 in 10.0 mi Calm Calm - N/A   Overcast
6:46 AM 57.2 °F 55.4 °F 94% 30.15 in 10.0 mi Calm Calm - N/A   Overcast
7:06 AM 57.2 °F 55.4 °F 94% 30.15 in 10.0 mi Calm Calm - N/A   Overcast
7:46 AM 59.0 °F 55.4 °F 88% 30.17 in 10.0 mi Calm Calm - N/A   Overcast
8:06 AM 60.8 °F 57.2 °F 88% 30.17 in 10.0 mi Calm Calm - N/A   Overcast
8:26 AM 60.8 °F 55.4 °F 82% 30.18 in 10.0 mi Calm Calm - N/A   Overcast
8:46 AM 60.8 °F 55.4 °F 82% 30.19 in 10.0 mi Calm Calm - N/A   Overcast
9:06 AM 62.6 °F 55.4 °F 77% 30.19 in 10.0 mi East 5.8 mph - N/A   Overcast
9:26 AM 62.6 °F 55.4 °F 77% 30.20 in 10.0 mi East 3.5 mph - N/A   Mostly Cloudy
9:46 AM 62.6 °F 53.6 °F 72% 30.20 in 10.0 mi East 4.6 mph - N/A   Mostly Cloudy
10:06 AM 64.4 °F 53.6 °F 68% 30.21 in 10.0 mi East 5.8 mph - N/A   Overcast
10:26 AM 64.4 °F 51.8 °F 64% 30.21 in 10.0 mi East 6.9 mph - N/A   Mostly Cloudy
10:46 AM 68.0 °F 53.6 °F 60% 30.21 in 10.0 mi East 4.6 mph - N/A   Mostly Cloudy
11:06 AM 64.4 °F 51.8 °F 64% 30.22 in 10.0 mi ENE 6.9 mph - N/A   Mostly Cloudy
11:26 AM 64.4 °F 53.6 °F 68% 30.22 in 10.0 mi East 4.6 mph - N/A   Overcast
11:46 AM 68.0 °F 51.8 °F 56% 30.22 in 10.0 mi East 3.5 mph - N/A   Overcast
12:06 PM 66.2 °F 51.8 °F 60% 30.22 in 10.0 mi ENE 3.5 mph - N/A   Overcast
12:27 PM 68.0 °F 53.6 °F 60% 30.22 in 10.0 mi East 3.5 mph - N/A   Mostly Cloudy
12:47 PM 68.0 °F 53.6 °F 60% 30.22 in 10.0 mi ESE 3.5 mph - N/A   Mostly Cloudy
1:07 PM 68.0 °F 53.6 °F 60% 30.21 in 10.0 mi East 5.8 mph - N/A   Overcast
1:27 PM 68.0 °F 51.8 °F 56% 30.20 in 10.0 mi NE 4.6 mph - N/A   Overcast
1:47 PM 69.8 °F 53.6 °F 56% 30.19 in 10.0 mi ENE 6.9 mph - N/A   Mostly Cloudy
2:07 PM 68.0 °F 51.8 °F 56% 30.19 in 10.0 mi East 5.8 mph - N/A   Scattered Clouds
2:27 PM 69.8 °F 51.8 °F 53% 30.18 in 10.0 mi Calm Calm - N/A   Mostly Cloudy
2:47 PM 69.8 °F 51.8 °F 53% 30.17 in 10.0 mi NW 4.6 mph - N/A   Mostly Cloudy
3:07 PM 68.0 °F 51.8 °F 56% 30.18 in 10.0 mi NE 4.6 mph - N/A   Mostly Cloudy
3:27 PM 69.8 °F 51.8 °F 53% 30.18 in 10.0 mi Calm Calm - N/A   Mostly Cloudy
3:47 PM 69.8 °F 51.8 °F 53% 30.18 in 10.0 mi East 3.5 mph - N/A   Mostly Cloudy
4:07 PM 69.8 °F 51.8 °F 53% 30.18 in 10.0 mi NE 5.8 mph - N/A   Scattered Clouds
4:27 PM 69.8 °F 51.8 °F 53% 30.18 in 10.0 mi NNE 5.8 mph - N/A   Scattered Clouds
4:47 PM 68.0 °F 51.8 °F 56% 30.18 in 10.0 mi NE 5.8 mph - N/A   Scattered Clouds
5:07 PM 68.0 °F 51.8 °F 56% 30.19 in 10.0 mi ENE 6.9 mph - N/A   Clear
5:27 PM 68.0 °F 51.8 °F 56% 30.19 in 10.0 mi NE 4.6 mph - N/A   Clear
5:47 PM 68.0 °F 51.8 °F 56% 30.18 in 10.0 mi NE 4.6 mph - N/A   Clear
6:07 PM 66.2 °F 51.8 °F 60% 30.19 in 10.0 mi NE 3.5 mph - N/A   Clear
6:27 PM 64.4 °F 51.8 °F 64% 30.19 in 10.0 mi Calm Calm - N/A   Clear
6:47 PM 62.6 °F 53.6 °F 72% 30.19 in 10.0 mi Calm Calm - N/A   Clear
7:07 PM 60.8 °F 51.8 °F 72% 30.19 in 10.0 mi Calm Calm - N/A   Clear
7:27 PM 59.0 °F 53.6 °F 82% 30.20 in 10.0 mi Calm Calm - N/A   Clear
7:47 PM 59.0 °F 53.6 °F 82% 30.20 in 10.0 mi Calm Calm - N/A   Scattered Clouds
8:07 PM 57.2 °F 53.6 °F 88% 30.21 in 10.0 mi Calm Calm - N/A   Clear
8:27 PM 57.2 °F 51.8 °F 82% 30.21 in 10.0 mi Calm Calm - N/A   Clear
8:47 PM 57.2 °F 51.8 °F 82% 30.22 in 10.0 mi Calm Calm - N/A   Clear
9:08 PM 57.2 °F 51.8 °F 82% 30.22 in 10.0 mi East 3.5 mph - N/A   Clear
9:28 PM 59.0 °F 51.8 °F 77% 30.23 in 10.0 mi East 3.5 mph - N/A   Clear
9:48 PM 59.0 °F 51.8 °F 77% 30.23 in 10.0 mi East 4.6 mph - N/A   Clear
10:08 PM 60.8 °F 51.8 °F 72% 30.24 in 10.0 mi East 3.5 mph - N/A   Scattered Clouds
10:28 PM 60.8 °F 51.8 °F 72% 30.25 in 10.0 mi East 3.5 mph - N/A   Scattered Clouds
10:48 PM 59.0 °F 51.8 °F 77% 30.25 in 10.0 mi East 3.5 mph - N/A   Clear
11:08 PM 60.8 °F 51.8 °F 72% 30.25 in 10.0 mi East 4.6 mph - N/A   Scattered Clouds
11:28 PM 60.8 °F 51.8 °F 72% 30.25 in 10.0 mi ENE 3.5 mph - N/A   Overcast
11:48 PM 60.8 °F 51.8 °F 72% 30.25 in 10.0 mi East 3.5 mph - N/A   Overcast